When you browse on this site, cookies collect data to enhance your experience and personalize the content and advertising you see.
Visit our Privacy Policy to learn more. By continuing to use the site, you agree to this use of cookies and data.

Hourly Weather Ordino

Today, 11 July, Saturday

Time Temperature Precipitation Wind Pressure Humidity
00:00 +13°C° 0 mm 1 mps 635 mmHg 93%
01:00 +13°C° 0 mm 1 mps 635 mmHg 93%
02:00 +13°C° 0 mm 1 mps 635 mmHg 93%
03:00 +13°C° 0 mm 1 mps 635 mmHg 93%
04:00 +13°C° 0 mm 1 mps 635 mmHg 92%
05:00 +14°C° 0 mm 1 mps 636 mmHg 91%
06:00 +14°C° 0 mm 1 mps 636 mmHg 90%
07:00 +15°C° 0 mm 1 mps 637 mmHg 84%
08:00 +18°C° 0 mm 1 mps 637 mmHg 79%
09:00 +19°C° 0 mm 1 mps 638 mmHg 73%
10:00 +20°C° 0 mm 1 mps 638 mmHg 71%
11:00 +19°C° 0 mm 2 mps 638 mmHg 69%
12:00 +20°C° 0 mm 2 mps 638 mmHg 67%
13:00 +20°C° 0.5 mm 2 mps 638 mmHg 70%
14:00 +21°C° 0.5 mm 1 mps 637 mmHg 72%
15:00 +20°C° 0.5 mm 1 mps 637 mmHg 75%
16:00 +20°C° 0.4 mm 1 mps 637 mmHg 78%
17:00 +19°C° 0.4 mm 1 mps 637 mmHg 82%
18:00 +18°C° 0.4 mm 1 mps 636 mmHg 86%
19:00 +18°C° 0.1 mm 1 mps 636 mmHg 88%
20:00 +16°C° 0.1 mm 1 mps 636 mmHg 90%
21:00 +14°C° 0.1 mm 0 mps 636 mmHg 92%
22:00 +13°C° 0 mm 0 mps 636 mmHg 93%
23:00 +14°C° 0 mm 1 mps 636 mmHg 93%

Tomorrow, 12 July, Sunday

Time Temperature Precipitation Wind Pressure Humidity
00:00 +14°C° 0 mm 1 mps 636 mmHg 94%
01:00 +13°C° 0 mm 1 mps 635 mmHg 93%
02:00 +13°C° 0 mm 1 mps 635 mmHg 93%
03:00 +13°C° 0 mm 1 mps 635 mmHg 93%
04:00 +14°C° 0 mm 1 mps 636 mmHg 91%
05:00 +15°C° 0 mm 1 mps 636 mmHg 88%
06:00 +15°C° 0 mm 0 mps 637 mmHg 86%
07:00 +18°C° 0.1 mm 1 mps 637 mmHg 80%
08:00 +20°C° 0.1 mm 1 mps 638 mmHg 74%
09:00 +22°C° 0.1 mm 1 mps 639 mmHg 69%
10:00 +21°C° 0.8 mm 2 mps 639 mmHg 66%
11:00 +23°C° 0.8 mm 2 mps 639 mmHg 63%
12:00 +24°C° 0.8 mm 2 mps 639 mmHg 60%
13:00 +23°C° 1.9 mm 2 mps 639 mmHg 63%
14:00 +23°C° 1.9 mm 1 mps 638 mmHg 65%
15:00 +22°C° 1.9 mm 1 mps 638 mmHg 68%
16:00 +22°C° 1.8 mm 1 mps 637 mmHg 73%
17:00 +21°C° 1.8 mm 1 mps 637 mmHg 79%
18:00 +20°C° 1.8 mm 1 mps 637 mmHg 84%
19:00 +19°C° 0.7 mm 1 mps 637 mmHg 86%
20:00 +16°C° 0.7 mm 1 mps 636 mmHg 88%
21:00 +15°C° 0.7 mm 1 mps 636 mmHg 90%
22:00 +15°C° 0.8 mm 1 mps 636 mmHg 90%
23:00 +15°C° 0.8 mm 1 mps 637 mmHg 90%

Day after tomorrow, 13 July, Monday

Time Temperature Precipitation Wind Pressure Humidity
00:00 +15°C° 0.8 mm 1 mps 637 mmHg 90%
01:00 +15°C° 0.1 mm 1 mps 636 mmHg 89%
02:00 +14°C° 0.1 mm 1 mps 636 mmHg 87%
03:00 +13°C° 0.1 mm 0 mps 636 mmHg 86%
04:00 +14°C° 0 mm 1 mps 636 mmHg 86%
05:00 +15°C° 0 mm 1 mps 636 mmHg 87%
06:00 +15°C° 0 mm 1 mps 637 mmHg 87%
07:00 +18°C° 0.2 mm 1 mps 637 mmHg 82%
08:00 +19°C° 0.2 mm 1 mps 638 mmHg 77%
09:00 +21°C° 0.2 mm 1 mps 638 mmHg 72%
10:00 +21°C° 1.3 mm 1 mps 638 mmHg 74%
11:00 +21°C° 1.3 mm 1 mps 638 mmHg 76%
12:00 +21°C° 1.3 mm 1 mps 638 mmHg 79%
13:00 +20°C° 1.9 mm 1 mps 637 mmHg 80%
14:00 +20°C° 1.9 mm 1 mps 637 mmHg 81%
15:00 +20°C° 1.9 mm 1 mps 636 mmHg 83%
16:00 +19°C° 1.1 mm 1 mps 636 mmHg 85%
17:00 +18°C° 1.1 mm 1 mps 636 mmHg 88%
18:00 +18°C° 1.1 mm 1 mps 636 mmHg 90%
19:00 +16°C° 0.1 mm 1 mps 636 mmHg 92%
20:00 +15°C° 0.1 mm 1 mps 636 mmHg 94%
21:00 +14°C° 0.1 mm 1 mps 636 mmHg 95%
22:00 +13°C° 0 mm 1 mps 635 mmHg 95%
23:00 +13°C° 0 mm 1 mps 635 mmHg 95%

14 July, Tuesday

Time Temperature Precipitation Wind Pressure Humidity
00:00 +12°C° 0 mm 1 mps 635 mmHg 95%
01:00 +12°C° 0 mm 1 mps 635 mmHg 95%
02:00 +12°C° 0 mm 1 mps 635 mmHg 95%
03:00 +11°C° 0 mm 1 mps 634 mmHg 94%
04:00 +12°C° 0 mm 1 mps 635 mmHg 94%
05:00 +12°C° 0 mm 1 mps 635 mmHg 93%
06:00 +12°C° 0 mm 1 mps 635 mmHg 92%
07:00 +14°C° 0 mm 1 mps 636 mmHg 84%
08:00 +16°C° 0 mm 1 mps 637 mmHg 76%
09:00 +18°C° 0 mm 1 mps 637 mmHg 68%
10:00 +19°C° 0.1 mm 1 mps 637 mmHg 66%
11:00 +19°C° 0.1 mm 1 mps 637 mmHg 64%
12:00 +19°C° 0.1 mm 2 mps 637 mmHg 62%
13:00 +19°C° 0.4 mm 2 mps 637 mmHg 63%
14:00 +19°C° 0.4 mm 2 mps 637 mmHg 64%
15:00 +20°C° 0.4 mm 1 mps 636 mmHg 65%
16:00 +18°C° 0.3 mm 2 mps 636 mmHg 70%
17:00 +17°C° 0.3 mm 2 mps 636 mmHg 75%
18:00 +16°C° 0.3 mm 2 mps 635 mmHg 80%
19:00 +15°C° 0 mm 2 mps 635 mmHg 83%
20:00 +14°C° 0 mm 2 mps 635 mmHg 86%
21:00 +12°C° 0 mm 2 mps 635 mmHg 90%
22:00 +12°C° 0 mm 1 mps 635 mmHg 90%
23:00 +11°C° 0 mm 1 mps 635 mmHg 91%

15 July, Wednesday

Time Temperature Precipitation Wind Pressure Humidity
00:00 +10°C° 0 mm 1 mps 635 mmHg 91%
01:00 +10°C° 0 mm 1 mps 634 mmHg 90%
02:00 +10°C° 0 mm 1 mps 634 mmHg 88%
03:00 +10°C° 0 mm 1 mps 634 mmHg 87%
04:00 +11°C° 0 mm 1 mps 635 mmHg 83%
05:00 +12°C° 0 mm 1 mps 635 mmHg 80%
06:00 +12°C° 0 mm 1 mps 636 mmHg 77%
07:00 +15°C° 0 mm 1 mps 637 mmHg 68%
08:00 +18°C° 0 mm 1 mps 638 mmHg 60%
09:00 +20°C° 0 mm 1 mps 638 mmHg 52%
10:00 +21°C° 0 mm 1 mps 639 mmHg 50%
11:00 +22°C° 0 mm 1 mps 639 mmHg 48%
12:00 +23°C° 0 mm 2 mps 639 mmHg 47%
13:00 +23°C° 0 mm 2 mps 639 mmHg 49%
14:00 +23°C° 0 mm 2 mps 638 mmHg 51%
15:00 +23°C° 0 mm 1 mps 638 mmHg 53%
16:00 +22°C° 0 mm 1 mps 638 mmHg 59%
17:00 +21°C° 0 mm 1 mps 637 mmHg 64%
18:00 +20°C° 0 mm 1 mps 637 mmHg 70%
19:00 +18°C° 0 mm 1 mps 637 mmHg 76%
20:00 +15°C° 0 mm 1 mps 637 mmHg 81%
21:00 +13°C° 0 mm 1 mps 637 mmHg 87%
22:00 +13°C° 0 mm 1 mps 637 mmHg 87%
23:00 +13°C° 0 mm 1 mps 637 mmHg 87%

16 July, Thursday

Time Temperature Precipitation Wind Pressure Humidity
00:00 +13°C° 0 mm 1 mps 637 mmHg 87%
01:00 +13°C° 0 mm 1 mps 636 mmHg 87%
02:00 +13°C° 0 mm 1 mps 636 mmHg 87%
03:00 +13°C° 0 mm 1 mps 636 mmHg 87%
04:00 +14°C° 0 mm 1 mps 637 mmHg 85%
05:00 +15°C° 0 mm 1 mps 637 mmHg 83%
06:00 +15°C° 0 mm 1 mps 638 mmHg 81%
07:00 +19°C° 0 mm 1 mps 638 mmHg 73%
08:00 +21°C° 0 mm 1 mps 639 mmHg 64%
09:00 +23°C° 0 mm 1 mps 640 mmHg 56%
10:00 +23°C° 0 mm 1 mps 640 mmHg 55%
11:00 +24°C° 0 mm 2 mps 640 mmHg 53%
12:00 +25°C° 0 mm 2 mps 640 mmHg 52%
13:00 +25°C° 0.2 mm 2 mps 639 mmHg 54%
14:00 +24°C° 0.2 mm 2 mps 639 mmHg 56%
15:00 +24°C° 0.2 mm 2 mps 638 mmHg 59%
16:00 +23°C° 0.2 mm 2 mps 638 mmHg 65%
17:00 +21°C° 0.2 mm 2 mps 637 mmHg 71%
18:00 +21°C° 0.2 mm 1 mps 637 mmHg 78%
19:00 +19°C° 0 mm 1 mps 637 mmHg 82%
20:00 +16°C° 0 mm 1 mps 637 mmHg 87%
21:00 +15°C° 0 mm 1 mps 636 mmHg 91%
22:00 +14°C° 0 mm 1 mps 636 mmHg 91%
23:00 +14°C° 0 mm 1 mps 636 mmHg 91%
Show more